Time,TemperatureF,DewpointF,PressureIn,WindDirection,WindDirectionDegrees,WindSpeedMPH,WindSpeedGustMPH,Humidity,HourlyPrecipIn,Conditions,Clouds,dailyrainin,SoftwareType,DateUTC
2013-04-18 00:00:00,49.0,38.0,-100.00,WSW,239,0.0,2.0,65,-99.99,,,-99.99,,2013-04-18 04:00:00,
2013-04-18 00:23:00,49.0,38.0,-100.00,WSW,239,0.0,2.0,65,-99.99,,,-99.99,,2013-04-18 04:23:00,
2013-04-18 00:33:00,49.0,38.0,-100.00,WSW,239,0.0,2.0,65,-99.99,,,-99.99,,2013-04-18 04:33:00,
2013-04-18 00:43:00,49.0,38.0,-100.00,WSW,239,0.0,2.0,65,-99.99,,,-99.99,,2013-04-18 04:43:00,
2013-04-18 00:53:00,49.0,38.0,-100.00,WSW,239,0.0,2.0,65,-99.99,,,-99.99,,2013-04-18 04:53:00,
2013-04-18 01:00:00,47.0,38.0,-100.00,WSW,239,0.0,0.0,72,-99.99,,,-99.99,,2013-04-18 05:00:00,
2013-04-18 01:22:00,47.0,38.0,-100.00,WSW,239,0.0,0.0,72,-99.99,,,-99.99,,2013-04-18 05:22:00,
2013-04-18 01:33:00,47.0,38.0,-100.00,WSW,239,0.0,0.0,72,-99.99,,,-99.99,,2013-04-18 05:33:00,
2013-04-18 01:42:00,47.0,38.0,-100.00,WSW,239,0.0,0.0,72,-99.99,,,-99.99,,2013-04-18 05:42:00,
2013-04-18 01:52:00,47.0,38.0,-100.00,WSW,239,0.0,0.0,72,-99.99,,,-99.99,,2013-04-18 05:52:00,
2013-04-18 02:00:00,46.0,39.0,-100.00,NNW,328,0.0,0.0,77,-99.99,,,-99.99,,2013-04-18 06:00:00,
2013-04-18 02:22:00,46.0,39.0,-100.00,NNW,328,0.0,0.0,77,-99.99,,,-99.99,,2013-04-18 06:22:00,
2013-04-18 02:32:00,46.0,39.0,-100.00,NNW,328,0.0,0.0,77,-99.99,,,-99.99,,2013-04-18 06:32:00,
2013-04-18 02:42:00,46.0,39.0,-100.00,NNW,328,0.0,0.0,77,-99.99,,,-99.99,,2013-04-18 06:42:00,
2013-04-18 02:52:00,46.0,39.0,-100.00,NNW,328,0.0,0.0,77,-99.99,,,-99.99,,2013-04-18 06:52:00,
2013-04-18 03:00:00,44.0,40.0,-100.00,North,354,0.0,0.0,84,-99.99,,,-99.99,,2013-04-18 07:00:00,
2013-04-18 03:32:00,44.0,40.0,-100.00,North,354,0.0,0.0,84,-99.99,,,-99.99,,2013-04-18 07:32:00,
2013-04-18 03:42:00,44.0,40.0,-100.00,North,354,0.0,0.0,84,-99.99,,,-99.99,,2013-04-18 07:42:00,
2013-04-18 03:53:00,44.0,40.0,-100.00,North,354,0.0,0.0,84,-99.99,,,-99.99,,2013-04-18 07:53:00,
2013-04-18 04:00:00,47.0,42.0,-100.00,West,280,0.0,0.0,85,-99.99,,,-99.99,,2013-04-18 08:00:00,
2013-04-18 04:22:00,47.0,42.0,-100.00,West,280,0.0,0.0,85,-99.99,,,-99.99,,2013-04-18 08:22:00,
2013-04-18 04:32:00,47.0,42.0,-100.00,West,280,0.0,0.0,85,-99.99,,,-99.99,,2013-04-18 08:32:00,
2013-04-18 04:42:00,47.0,42.0,-100.00,West,280,0.0,0.0,85,-99.99,,,-99.99,,2013-04-18 08:42:00,
2013-04-18 04:52:00,47.0,42.0,-100.00,West,280,0.0,0.0,85,-99.99,,,-99.99,,2013-04-18 08:52:00,
2013-04-18 05:00:00,47.0,43.0,-100.00,NE,35,0.0,0.0,85,-99.99,,,-99.99,,2013-04-18 09:00:00,
2013-04-18 05:22:00,47.0,43.0,-100.00,NE,35,0.0,0.0,85,-99.99,,,-99.99,,2013-04-18 09:22:00,
2013-04-18 05:33:00,47.0,43.0,-100.00,NE,35,0.0,0.0,85,-99.99,,,-99.99,,2013-04-18 09:33:00,
2013-04-18 05:43:00,47.0,43.0,-100.00,NE,35,0.0,0.0,85,-99.99,,,-99.99,,2013-04-18 09:43:00,
2013-04-18 05:53:00,47.0,43.0,-100.00,NE,35,0.0,0.0,85,-99.99,,,-99.99,,2013-04-18 09:53:00,
2013-04-18 06:00:00,47.0,44.0,-100.00,East,79,5.0,7.0,89,-99.99,,,-99.99,,2013-04-18 10:00:00,
2013-04-18 06:33:00,47.0,44.0,-100.00,East,79,5.0,7.0,89,-99.99,,,-99.99,,2013-04-18 10:33:00,
2013-04-18 06:42:00,47.0,44.0,-100.00,East,79,5.0,7.0,89,-99.99,,,-99.99,,2013-04-18 10:42:00,
2013-04-18 06:53:00,47.0,44.0,-100.00,East,79,5.0,7.0,89,-99.99,,,-99.99,,2013-04-18 10:53:00,
2013-04-18 07:00:00,49.0,46.0,-100.00,East,93,0.0,8.0,88,-99.99,,,-99.99,,2013-04-18 11:00:00,
2013-04-18 07:22:00,49.0,46.0,-100.00,East,93,0.0,8.0,88,-99.99,,,-99.99,,2013-04-18 11:22:00,
2013-04-18 07:32:00,49.0,46.0,-100.00,East,93,0.0,8.0,88,-99.99,,,-99.99,,2013-04-18 11:32:00,
2013-04-18 07:42:00,49.0,46.0,-100.00,East,93,0.0,8.0,88,-99.99,,,-99.99,,2013-04-18 11:42:00,
2013-04-18 07:52:00,49.0,46.0,-100.00,East,93,0.0,8.0,88,-99.99,,,-99.99,,2013-04-18 11:52:00,
2013-04-18 08:00:00,51.0,44.0,-100.00,ESE,105,10.0,16.0,78,-99.99,,,-99.99,,2013-04-18 12:00:00,
2013-04-18 08:23:00,51.0,44.0,-100.00,ESE,105,10.0,16.0,78,-99.99,,,-99.99,,2013-04-18 12:23:00,
2013-04-18 08:32:00,51.0,44.0,-100.00,ESE,105,10.0,16.0,78,-99.99,,,-99.99,,2013-04-18 12:32:00,
2013-04-18 08:42:00,51.0,44.0,-100.00,ESE,105,10.0,16.0,78,-99.99,,,-99.99,,2013-04-18 12:42:00,
2013-04-18 08:52:00,51.0,44.0,-100.00,ESE,105,10.0,16.0,78,-99.99,,,-99.99,,2013-04-18 12:52:00,
2013-04-18 09:00:00,51.0,44.0,-100.00,SE,133,5.0,12.0,76,-99.99,,,-99.99,,2013-04-18 13:00:00,
2013-04-18 09:22:00,51.0,44.0,-100.00,SE,133,5.0,12.0,76,-99.99,,,-99.99,,2013-04-18 13:22:00,
2013-04-18 09:33:00,51.0,44.0,-100.00,SE,133,5.0,12.0,76,-99.99,,,-99.99,,2013-04-18 13:33:00,
2013-04-18 09:43:00,51.0,44.0,-100.00,SE,133,5.0,12.0,76,-99.99,,,-99.99,,2013-04-18 13:43:00,
2013-04-18 09:53:00,51.0,44.0,-100.00,SE,133,5.0,12.0,76,-99.99,,,-99.99,,2013-04-18 13:53:00,
2013-04-18 10:00:00,52.0,43.0,-100.00,ESE,104,4.0,12.0,74,-99.99,,,-99.99,,2013-04-18 14:00:00,
2013-04-18 10:22:00,52.0,43.0,-100.00,ESE,104,4.0,12.0,74,-99.99,,,-99.99,,2013-04-18 14:22:00,
2013-04-18 10:33:00,52.0,43.0,-100.00,ESE,104,4.0,12.0,74,-99.99,,,-99.99,,2013-04-18 14:33:00,
2013-04-18 10:43:00,52.0,43.0,-100.00,ESE,104,4.0,12.0,74,-99.99,,,-99.99,,2013-04-18 14:43:00,
2013-04-18 10:52:00,52.0,43.0,-100.00,ESE,104,4.0,12.0,74,-99.99,,,-99.99,,2013-04-18 14:52:00,
2013-04-18 11:00:00,54.0,45.0,-100.00,SSE,154,5.0,14.0,69,-99.99,,,-99.99,,2013-04-18 15:00:00,
2013-04-18 11:22:00,54.0,45.0,-100.00,SSE,154,5.0,14.0,69,-99.99,,,-99.99,,2013-04-18 15:22:00,
2013-04-18 11:33:00,54.0,45.0,-100.00,SSE,154,5.0,14.0,69,-99.99,,,-99.99,,2013-04-18 15:33:00,
2013-04-18 11:43:00,54.0,45.0,-100.00,SSE,154,5.0,14.0,69,-99.99,,,-99.99,,2013-04-18 15:43:00,
2013-04-18 11:53:00,54.0,45.0,-100.00,SSE,154,5.0,14.0,69,-99.99,,,-99.99,,2013-04-18 15:53:00,
2013-04-18 12:00:00,53.0,44.0,-100.00,South,176,4.0,17.0,73,-99.99,,,-99.99,,2013-04-18 16:00:00,
2013-04-18 12:23:00,53.0,44.0,-100.00,South,176,4.0,17.0,73,-99.99,,,-99.99,,2013-04-18 16:23:00,
2013-04-18 12:33:00,53.0,44.0,-100.00,South,176,4.0,17.0,73,-99.99,,,-99.99,,2013-04-18 16:33:00,
2013-04-18 12:43:00,53.0,44.0,-100.00,South,176,4.0,17.0,73,-99.99,,,-99.99,,2013-04-18 16:43:00,
2013-04-18 12:53:00,53.0,44.0,-100.00,South,176,4.0,17.0,73,-99.99,,,-99.99,,2013-04-18 16:53:00,
2013-04-18 13:00:00,54.0,45.0,-100.00,SSW,201,7.0,15.0,72,-99.99,,,-99.99,,2013-04-18 17:00:00,
2013-04-18 13:22:00,54.0,45.0,-100.00,SSW,201,7.0,15.0,72,-99.99,,,-99.99,,2013-04-18 17:22:00,
2013-04-18 13:33:00,54.0,45.0,-100.00,SSW,201,7.0,15.0,72,-99.99,,,-99.99,,2013-04-18 17:33:00,
2013-04-18 13:43:00,54.0,45.0,-100.00,SSW,201,7.0,15.0,72,-99.99,,,-99.99,,2013-04-18 17:43:00,
2013-04-18 13:52:00,54.0,45.0,-100.00,SSW,201,7.0,15.0,72,-99.99,,,-99.99,,2013-04-18 17:52:00,
2013-04-18 14:00:00,54.0,46.0,-100.00,WSW,240,6.0,16.0,75,-99.99,,,-99.99,,2013-04-18 18:00:00,
2013-04-18 14:23:00,54.0,46.0,-100.00,WSW,240,6.0,16.0,75,-99.99,,,-99.99,,2013-04-18 18:23:00,
2013-04-18 14:33:00,54.0,46.0,-100.00,WSW,240,6.0,16.0,75,-99.99,,,-99.99,,2013-04-18 18:33:00,
2013-04-18 14:43:00,54.0,46.0,-100.00,WSW,240,6.0,16.0,75,-99.99,,,-99.99,,2013-04-18 18:43:00,
2013-04-18 14:53:00,54.0,46.0,-100.00,WSW,240,6.0,16.0,75,-99.99,,,-99.99,,2013-04-18 18:53:00,
2013-04-18 15:00:00,52.0,46.0,-100.00,South,176,5.0,14.0,80,-99.99,,,-99.99,,2013-04-18 19:00:00,
2013-04-18 15:22:00,52.0,46.0,-100.00,South,176,5.0,14.0,80,-99.99,,,-99.99,,2013-04-18 19:22:00,
2013-04-18 15:33:00,52.0,46.0,-100.00,South,176,5.0,14.0,80,-99.99,,,-99.99,,2013-04-18 19:33:00,
2013-04-18 15:43:00,52.0,46.0,-100.00,South,176,5.0,14.0,80,-99.99,,,-99.99,,2013-04-18 19:43:00,
2013-04-18 15:53:00,52.0,46.0,-100.00,South,176,5.0,14.0,80,-99.99,,,-99.99,,2013-04-18 19:53:00,
2013-04-18 16:00:00,51.0,47.0,-100.00,South,190,3.0,15.0,86,-99.99,,,-99.99,,2013-04-18 20:00:00,
2013-04-18 16:32:00,51.0,47.0,-100.00,South,190,3.0,15.0,86,-99.99,,,-99.99,,2013-04-18 20:32:00,
2013-04-18 16:43:00,51.0,47.0,-100.00,South,190,3.0,15.0,86,-99.99,,,-99.99,,2013-04-18 20:43:00,
2013-04-18 16:52:00,51.0,47.0,-100.00,South,190,3.0,15.0,86,-99.99,,,-99.99,,2013-04-18 20:52:00,
2013-04-18 17:00:00,51.0,48.0,-100.00,SSW,197,3.0,11.0,87,-99.99,,,-99.99,,2013-04-18 21:00:00,
2013-04-18 17:33:00,51.0,48.0,-100.00,SSW,197,3.0,11.0,87,-99.99,,,-99.99,,2013-04-18 21:33:00,
2013-04-18 17:43:00,51.0,48.0,-100.00,SSW,197,3.0,11.0,87,-99.99,,,-99.99,,2013-04-18 21:43:00,
2013-04-18 17:53:00,51.0,48.0,-100.00,SSW,197,3.0,11.0,87,-99.99,,,-99.99,,2013-04-18 21:53:00,
2013-04-18 18:00:00,52.0,48.0,-100.00,WSW,242,3.0,11.0,87,-99.99,,,-99.99,,2013-04-18 22:00:00,
2013-04-18 18:23:00,52.0,48.0,-100.00,WSW,242,3.0,11.0,87,-99.99,,,-99.99,,2013-04-18 22:23:00,
2013-04-18 18:33:00,52.0,48.0,-100.00,WSW,242,3.0,11.0,87,-99.99,,,-99.99,,2013-04-18 22:33:00,
2013-04-18 18:42:00,52.0,48.0,-100.00,WSW,242,3.0,11.0,87,-99.99,,,-99.99,,2013-04-18 22:42:00,
2013-04-18 18:53:00,52.0,48.0,-100.00,WSW,242,3.0,11.0,87,-99.99,,,-99.99,,2013-04-18 22:53:00,
2013-04-18 19:00:00,52.0,49.0,-100.00,SW,234,6.0,11.0,89,-99.99,,,-99.99,,2013-04-18 23:00:00,
2013-04-18 19:22:00,52.0,49.0,-100.00,SW,234,6.0,11.0,89,-99.99,,,-99.99,,2013-04-18 23:22:00,
2013-04-18 19:32:00,52.0,49.0,-100.00,SW,234,6.0,11.0,89,-99.99,,,-99.99,,2013-04-18 23:32:00,
2013-04-18 19:42:00,52.0,49.0,-100.00,SW,234,6.0,11.0,89,-99.99,,,-99.99,,2013-04-18 23:42:00,
2013-04-18 19:52:00,52.0,49.0,-100.00,SW,234,6.0,11.0,89,-99.99,,,-99.99,,2013-04-18 23:52:00,
2013-04-18 20:00:00,51.0,49.0,-100.00,WSW,243,0.0,10.0,92,-99.99,,,-99.99,,2013-04-19 00:00:00,
2013-04-18 20:32:00,51.0,49.0,-100.00,WSW,243,0.0,10.0,92,-99.99,,,-99.99,,2013-04-19 00:32:00,
2013-04-18 20:42:00,51.0,49.0,-100.00,WSW,243,0.0,10.0,92,-99.99,,,-99.99,,2013-04-19 00:42:00,
2013-04-18 20:52:00,51.0,49.0,-100.00,WSW,243,0.0,10.0,92,-99.99,,,-99.99,,2013-04-19 00:52:00,
2013-04-18 21:00:00,53.0,51.0,-100.00,SSE,162,7.0,7.0,94,-99.99,,,-99.99,,2013-04-19 01:00:00,
2013-04-18 21:32:00,53.0,51.0,-100.00,SSE,162,7.0,7.0,94,-99.99,,,-99.99,,2013-04-19 01:32:00,
2013-04-18 21:42:00,53.0,51.0,-100.00,SSE,162,7.0,7.0,94,-99.99,,,-99.99,,2013-04-19 01:42:00,
2013-04-18 21:52:00,53.0,51.0,-100.00,SSE,162,7.0,7.0,94,-99.99,,,-99.99,,2013-04-19 01:52:00,
2013-04-18 22:00:00,54.0,53.0,-100.00,South,184,5.0,11.0,96,-99.99,,,-99.99,,2013-04-19 02:00:00,
2013-04-18 22:21:00,54.0,53.0,-100.00,South,184,5.0,11.0,96,-99.99,,,-99.99,,2013-04-19 02:21:00,
2013-04-18 22:32:00,54.0,53.0,-100.00,South,184,5.0,11.0,96,-99.99,,,-99.99,,2013-04-19 02:32:00,
2013-04-18 22:42:00,54.0,53.0,-100.00,South,184,5.0,11.0,96,-99.99,,,-99.99,,2013-04-19 02:42:00,
2013-04-18 22:52:00,54.0,53.0,-100.00,South,184,5.0,11.0,96,-99.99,,,-99.99,,2013-04-19 02:52:00,
2013-04-18 23:00:00,55.0,54.0,-100.00,WSW,242,6.0,11.0,97,-99.99,,,-99.99,,2013-04-19 03:00:00,
2013-04-18 23:22:00,55.0,54.0,-100.00,WSW,242,6.0,11.0,97,-99.99,,,-99.99,,2013-04-19 03:22:00,
2013-04-18 23:33:00,55.0,54.0,-100.00,WSW,242,6.0,11.0,97,-99.99,,,-99.99,,2013-04-19 03:33:00,
2013-04-18 23:43:00,55.0,54.0,-100.00,WSW,242,6.0,11.0,97,-99.99,,,-99.99,,2013-04-19 03:43:00,
2013-04-18 23:53:00,55.0,54.0,-100.00,WSW,242,6.0,11.0,97,-99.99,,,-99.99,,2013-04-19 03:53:00,